Miscellaneous Local Product
Issued by NWS North Platte, NE

Home | Current Version | Previous Version | Text Only | Print | Product List | Glossary On
Versions: 1 2 3 4 5 6 7 8 9 10 11 12 13 14 15 16 17 18 19 20 21 22 23 24 25 26 27 28 29 30 31 32 33 34 35 36 37 38 39 40 41 42 43 44 45 46 47 48 49 50
000
AXUS43 KLBF 290510
MISLBF


WESTERN AND NORTH CENTRAL NEBRASKA HOURLY WEATHER ROUNDUP
NATIONAL WEATHER SERVICE NORTH PLATTE NE
1100 PM CST SUN DEC 28 2014

***STATIONS NOT REPORTING VARIABLES SUCH AS SKY/WEATHER OR
PRESSURE ARE PROVIDED BY THE NEBRASKA DEPARTMENT OF
ROADS...RAWS...AND APRS NETWORKS...AND ARE NOT UNDER
NATIONAL WEATHER SERVICE QUALITY CONTROL***

...OBSERVATIONS IN AND NEAR THE EASTERN PANHANDLE OF NEBRASKA...

CITY           SKY/WX    TMP DP  RH WIND       PRES   REMARKS
PINE RIDGE     LGT SNOW  17  13  84 NE10      30.08R FOG     WCI   5
CHADRON        LGT SNOW  16  13  88 NE13      30.08R FOG     WCI   2
ALLIANCE       CLOUDY    20  19  96 NE3       29.99R
SIDNEY         MOCLDY    16  10  77 W8        29.96R WCI   5
WHITECLAY        N/A     17  12  82 N5          N/A  WCI   9
CRESCENT LAKE    N/A     19  10  68 S3          N/A
LISCO            N/A     15  10  80 CALM        N/A
BIG SPRINGS      N/A      3   0  85 CALM        N/A
$$

...OBSERVATIONS IN NORTH CENTRAL NEBRASKA...

CITY           SKY/WX    TMP DP  RH WIND       PRES   REMARKS
VALENTINE      LGT SNOW  18  14  84 E15       30.14R FOG     WCI   4
THEDFORD       CLOUDY    21  17  87 NE8       30.09R WCI  11
AINSWORTH      LGT SNOW  17  15  91 NE15      30.14R WCI   2
O`NEILL        LGT SNOW  18  16  95 NE8       30.19R WCI   7
ORD            CLOUDY    18  13  80 E5        30.16R WCI  11
BROKEN BOW     CLOUDY    20  15  81 E7        30.10R WCI  11
BROWNLEE         N/A     17  14  90 E12         N/A  WCI   4
SPRINGVIEW       N/A     16  13  88 NE5         N/A  WCI   9
BREWSTER         N/A     21  19  93 E5          N/A  WCI  14
ROSE             N/A     22  22 100 N9          N/A  WCI  12
SARGENT          N/A     19  16  86 CALM        N/A
COMSTOCK         N/A     26  21  84 E8          N/A  WCI  17
CHAMBERS         N/A     17  13  84 N3          N/A
EWING            N/A     18  16  91 CALM        N/A
$$

...OBSERVATIONS IN SOUTHWEST NEBRASKA AND FAR NORTHEAST COLORADO...

CITY           SKY/WX    TMP DP  RH WIND       PRES   REMARKS
WRAY           FAIR      11   9  92 W5        30.01R WCI   3
HOLYOKE        FAIR       5   1  85 N3        30.00R
IMPERIAL       PTCLDY     9   6  88 NW3       30.03R
OGALLALA       MOCLDY     7   5  90 CALM      30.02S
NORTH PLATTE   CLOUDY    16  12  84 E5        30.06R WCI   9
MCCOOK         PTCLDY    17  13  84 N8        30.06R WCI   7
LEXINGTON      MOCLDY    18  15  88 CALM      30.09R
PAXTON           N/A      9   6  87 CALM        N/A
BRADY            N/A     19  15  82 CALM        N/A
GOTHENBURG       N/A     20  15  79 CALM        N/A
CALLAWAY         N/A     20  17  86 E12         N/A  WCI   8
$$

...NORTH PLATTE AREA...

CITY           SKY/WX    TMP DP  RH WIND       PRES   REMARKS
AIRPORT        CLOUDY    16  12  84 E5        30.06R WCI   9
$$

...SOME WEATHER OBSERVATIONS FROM AROUND THE REGION...

CITY           SKY/WX    TMP DP  RH WIND       PRES   REMARKS
DENVER         PTCLDY    15  10  80 SW9       29.93R WCI   3
LARAMIE        PTCLDY     9   6  88 NE6       29.87R WCI  -1
CHEYENNE       PTCLDY    14   5  67 SW8       29.90R WCI   3
SCOTTSBLUFF    CLOUDY    15  11  83 NW9       29.99R WCI   3
RAPID CITY     LGT SNOW  15  11  83 N8        30.16R FOG     WCI   4
PIERRE         MIX PCPN   9   5  84 NE17      30.29R FOG     WCI  -9
WINNER         LGT SNOW  19  15  84 E10       30.23R WCI   7
SIOUX FALLS    LGT SNOW  15  11  83 NE10      30.29R FOG     WCI   2
OMAHA          MOCLDY    24  22  91 N7        30.22R WCI  16
GRAND ISLAND   CLOUDY    19  16  88 NE6       30.16R WCI  11
KANSAS CITY    CLOUDY    29  22  75 S6        30.19R WCI  23
WICHITA        CLEAR     28  16  60 E7        30.13R WCI  21
HAYS           CLEAR     25  12  58 SE7       30.08R WCI  17
LIBERAL        CLEAR     21   9  58 NE5       29.99S WCI  15
GOODLAND       MOCLDY    12   8  84 CALM      30.00R
$$



USA.gov is the U.S. government's official web portal to all federal, state and local government web resources and services.